CYSFCYFB

Guest
Details From CYSF - Stony Rapids
To CYFB - Iqaluit
Flight Number -
Tags Generated
Created
Modified
Stats Distance 1,087 nm / 2,013 km
Max Altitude 0 ft / 0 m
Waypoints 4
Social Downloads 0
Likes 0
Share VATSIM

Download

Looking for another format? Having issues loading an existing format? Contact us
Advertisement - Login to hide

Notes

Generated

Route

CYSF 16YYQ YFY CYFB

ID Type Via Altitude Latitude Longitude Leg Dist Tot Dist Heading (true) Name
O CYSF APT - 0 ft / 0 m 59.25236˚ -105.82838˚ - 0 nm - -
16YYQ FIX - 0 ft / 0 m 60.77426˚ -99.99925˚ 197 nm 197 nm 60° / 65° -
YFY NDB - 0 ft / 0 m 63.73333˚ -68.54806˚ 887 nm 1084 nm 65° / 93° FROBAY NDB
O CYFB APT - 0 ft / 0 m 63.76497˚ -68.57398˚ 2 nm 1086 nm 340° / 340° -

Altitude Profile

Advertisement - Login to hide

Weather


0- 5 10 15 20 25 30 35+ Temperature / ° C

Clouds and Precipitation
Forecast for 2018-05-22 12:00 UTC. Updated 3 hours ago

Ground ~20,000 ft ~40,000 ft Winds

CYSF

Details ICAO CYSF (YSF)
Name Stony Rapids
Region Canada
Timezone America/Regina (UTC-6.0)
Stats Elevation 805 ft / 245 m (AMSL)
Location 59.250340° -105.841339°
Runways 1
Magnetic Variation 10.084° E

METAR

CYSF 221400Z AUTO 11010KT 9SM CLR 07/M01 A2998 RMK SLP164

Decode

TAF

TAF CYSF 221138Z 2212/2224 11005KT P6SM FEW240 FM221700 15008KT P6SM FEW080 BKN240 BECMG 2222/2224 20008KT RMK FCST BASED ON AUTO OBS. NXT FCST BY 221800Z

Decode

Departure Runways

ID Width Length Bearing (true) Bearing (mag) Surface Threshold Offset Overrun Length
06 98 ft / 30 m 5,055 ft / 1,541 m 253.01° 242.93° Asphalt 0 ft / 0 m 0 ft / 0 m
24 98 ft / 30 m 5,055 ft / 1,541 m 72.99° 62.91° Asphalt 0 ft / 0 m 0 ft / 0 m

CYFB

Details ICAO CYFB (YFB)
Name Iqaluit
Region Canada
Timezone America/Iqaluit (UTC-4.0)
Stats Elevation 110 ft / 34 m (AMSL)
Location 63.756565° -68.556058°
Runways 1
Magnetic Variation 27.374° W

METAR

CYFB 221406Z 33014KT 4SM -SN BKN013 OVC028 M06/M09 A2979 RMK SN3SC2SC3 SLP094

Decode

TAF

TAF CYFB 221138Z 2212/2312 32015KT P6SM -SN FEW020 OVC040 TEMPO 2212/2224 4SM -SN OVC020 BECMG 2214/2216 33020G30KT FM230000 32012KT P6SM FEW020 BKN040 TEMPO 2300/2312 P6SM -SN BKN020 OVC040 RMK NXT FCST BY 221800Z

Decode

Destination Runways

ID Width Length Bearing (true) Bearing (mag) Surface Threshold Offset Overrun Length
17 200 ft / 61 m 8,605 ft / 2,623 m 135.58° 162.95° Asphalt 0 ft / 0 m 210 ft / 64 m
35 200 ft / 61 m 8,605 ft / 2,623 m 315.62° 342.99° Asphalt 0 ft / 0 m 243 ft / 74 m